Overview Statistics Trail Chart Weather Telemetry Raw packets
 

This is the latest recevied weather packets stored in our database for station/object YO8SHU-10. If no packets are shown the sender has not sent any weather packets the latest 10 day(s).

<< 11 12 13 14 15 16 17 >>
Time Temp. Humidity Pressure Rain* Wind** Luminosity Snow
1788057023 17.78° C 100% 1023.7 hPa - - - -
1788055222 17.78° C 100% 1023.3 hPa - - - -
1788053422 17.78° C 100% 1023.3 hPa - - - -
1788051622 17.78° C 100% 1023.1 hPa - - - -
1788049822 17.78° C 100% 1023.5 hPa - - - -
1788048022 18.33° C 100% 1023.5 hPa - - - -
1788046222 19.44° C 100% 1023.4 hPa - - - -
1788044422 20.56° C 100% 1022.7 hPa - - - -
1788042622 20° C 100% 1022.7 hPa - - - -
1788040822 20° C 100% 1022 hPa - - - -
1788039022 19.44° C 100% 1021.5 hPa - - - -
1788037222 20° C 100% 1021.8 hPa - - - -
1788035421 20.56° C 100% 1021.9 hPa - - - -
1788033621 21.11° C 100% 1021.9 hPa - - - -
1788031822 21.67° C 100% 1022.1 hPa - - - -
1788030021 22.22° C 100% 1022.1 hPa - - - -
1788028221 22.22° C 100% 1021.6 hPa - - - -
1788026421 23.33° C 95% 1021.5 hPa - - - -
1788024621 23.33° C 94% 1021.4 hPa - - - -
1788022821 24.44° C 89% 1021.3 hPa - - - -
1788021021 26.11° C 77% 1021.7 hPa - - - -
1788019220 30.56° C 55% 1021.6 hPa - - - -
1788017420 33.89° C 41% 1022 hPa - - - -
1788015620 34.44° C 40% 1022.1 hPa - - - -
1788013820 32.78° C 51% 1022.3 hPa - - - -

* Rain since midnight (hover to see other rain measurements)
** Current wind speed in m/s (hover to see current wind gust speed)